Time,TemperatureF,DewpointF,PressureIn,WindDirection,WindDirectionDegrees,WindSpeedMPH,WindSpeedGustMPH,Humidity,HourlyPrecipIn,Conditions,Clouds,dailyrainin,SoftwareType,DateUTC
2013-01-14 07:25:00,0.1,-5.4,30.42,North,0,0.0,0.0,77,0.00,,---,0.00,VWS V14.01,2013-01-14 14:25:00,
2013-01-14 07:40:00,0.1,-5.4,30.42,North,0,0.0,0.0,77,0.00,,---,0.00,VWS V14.01,2013-01-14 14:40:00,
2013-01-14 07:45:00,0.5,-5.0,30.43,North,355,0.0,0.0,77,0.00,,---,0.00,VWS V14.01,2013-01-14 14:45:00,
2013-01-14 07:50:00,0.5,-5.0,30.41,North,355,0.0,0.0,77,0.00,,---,0.00,VWS V14.01,2013-01-14 14:50:00,
2013-01-14 07:55:00,0.6,-4.9,30.41,North,351,0.0,0.0,77,0.00,,---,0.00,VWS V14.01,2013-01-14 14:55:00,
2013-01-14 08:00:00,0.7,-4.8,30.41,North,355,0.0,0.0,77,0.00,,---,0.00,VWS V14.01,2013-01-14 15:00:00,
2013-01-14 08:05:00,0.8,-4.7,30.41,North,355,0.0,0.0,77,0.00,,---,0.00,VWS V14.01,2013-01-14 15:05:00,
2013-01-14 08:10:00,1.1,-4.4,30.45,North,355,0.0,0.0,77,0.00,,---,0.00,VWS V14.01,2013-01-14 15:10:00,
2013-01-14 08:15:00,1.3,-4.2,30.44,North,355,0.0,0.0,77,0.00,,---,0.00,VWS V14.01,2013-01-14 15:15:00,
2013-01-14 08:20:00,1.6,-3.9,30.42,North,355,0.0,0.0,77,0.00,,---,0.00,VWS V14.01,2013-01-14 15:20:00,
2013-01-14 08:25:00,1.9,-3.6,30.42,North,355,0.0,0.0,77,0.00,,---,0.00,VWS V14.01,2013-01-14 15:25:00,
2013-01-14 08:30:00,2.3,-3.2,30.43,North,350,0.0,0.0,77,0.00,,---,0.00,VWS V14.01,2013-01-14 15:30:00,
2013-01-14 08:35:00,2.8,-2.5,30.43,North,355,0.0,0.0,78,0.00,,---,0.00,VWS V14.01,2013-01-14 15:35:00,
2013-01-14 08:40:00,3.3,-2.3,30.42,North,355,0.0,0.0,77,0.00,,---,0.00,VWS V14.01,2013-01-14 15:40:00,
2013-01-14 08:45:00,3.6,-2.0,30.41,North,355,0.0,0.0,77,0.00,,---,0.00,VWS V14.01,2013-01-14 15:45:00,
2013-01-14 08:50:00,4.0,-1.6,30.41,North,355,0.0,0.0,77,0.00,,---,0.00,VWS V14.01,2013-01-14 15:50:00,
2013-01-14 08:55:00,4.2,-1.7,30.40,North,355,0.0,0.0,76,0.00,,---,0.00,VWS V14.01,2013-01-14 15:55:00,
2013-01-14 09:00:00,4.3,-1.9,30.40,North,355,0.0,0.0,75,0.00,,---,0.00,VWS V14.01,2013-01-14 16:00:00,
2013-01-14 09:05:00,4.4,-1.8,30.40,North,355,0.0,0.0,75,0.00,,---,0.00,VWS V14.01,2013-01-14 16:05:00,
2013-01-14 09:10:00,4.4,-2.0,30.40,North,355,0.0,0.0,74,0.00,,---,0.00,VWS V14.01,2013-01-14 16:10:00,
2013-01-14 09:15:00,4.2,-2.2,30.40,North,355,0.0,0.0,74,0.00,,---,0.00,VWS V14.01,2013-01-14 16:15:00,
2013-01-14 09:20:00,3.9,-2.5,30.40,North,355,2.0,2.0,74,0.00,,---,0.00,VWS V14.01,2013-01-14 16:20:00,
2013-01-14 09:25:00,3.6,-2.8,30.40,North,355,0.0,0.0,74,0.00,,---,0.00,VWS V14.01,2013-01-14 16:25:00,
2013-01-14 09:30:00,3.6,-2.5,30.40,North,355,1.0,1.0,75,0.00,,---,0.00,VWS V14.01,2013-01-14 16:30:00,
2013-01-14 09:35:00,3.7,-2.4,30.40,North,355,0.0,0.0,75,0.00,,---,0.00,VWS V14.01,2013-01-14 16:35:00,
2013-01-14 09:40:00,3.8,-2.6,30.40,North,355,0.0,0.0,74,0.00,,---,0.00,VWS V14.01,2013-01-14 16:40:00,
2013-01-14 09:45:00,3.9,-2.2,30.40,North,355,0.0,0.0,75,0.00,,---,0.00,VWS V14.01,2013-01-14 16:45:00,
2013-01-14 09:50:00,3.9,-2.2,30.40,North,355,0.0,0.0,75,0.00,,---,0.00,VWS V14.01,2013-01-14 16:50:00,
2013-01-14 09:55:00,4.1,-2.0,30.40,North,355,0.0,0.0,75,0.00,,---,0.00,VWS V14.01,2013-01-14 16:55:00,
2013-01-14 10:00:00,4.4,-2.0,30.40,North,355,0.0,0.0,74,0.00,,---,0.00,VWS V14.01,2013-01-14 17:00:00,
2013-01-14 10:05:00,4.5,-1.9,30.40,North,355,0.0,0.0,74,0.00,,---,0.00,VWS V14.01,2013-01-14 17:05:00,
2013-01-14 10:10:00,4.8,-1.6,30.40,North,355,0.0,1.0,74,0.00,,---,0.00,VWS V14.01,2013-01-14 17:10:00,
2013-01-14 10:15:00,5.1,-1.4,30.39,North,355,0.0,2.0,74,0.00,,---,0.00,VWS V14.01,2013-01-14 17:15:00,
2013-01-14 10:21:00,5.6,-0.9,30.39,North,355,0.0,0.0,74,0.00,,---,0.00,VWS V14.01,2013-01-14 17:21:00,
2013-01-14 10:26:00,5.8,-1.0,30.39,North,355,0.0,0.0,73,0.00,,---,0.00,VWS V14.01,2013-01-14 17:26:00,
2013-01-14 10:31:00,5.9,-1.2,30.39,North,355,0.0,0.0,72,0.00,,---,0.00,VWS V14.01,2013-01-14 17:31:00,
2013-01-14 10:36:00,6.1,-1.0,30.39,North,355,0.0,1.0,72,0.00,,---,0.00,VWS V14.01,2013-01-14 17:36:00,
2013-01-14 10:41:00,6.1,-1.0,30.38,North,355,0.0,0.0,72,0.00,,---,0.00,VWS V14.01,2013-01-14 17:41:00,
2013-01-14 10:46:00,6.1,-1.3,30.38,North,355,0.0,1.0,71,0.00,,---,0.00,VWS V14.01,2013-01-14 17:46:00,
2013-01-14 10:51:00,6.5,-0.6,30.36,North,355,0.0,0.0,72,0.00,,---,0.00,VWS V14.01,2013-01-14 17:51:00,
2013-01-14 10:56:00,6.6,-0.8,30.36,North,355,0.0,0.0,71,0.00,,---,0.00,VWS V14.01,2013-01-14 17:56:00,
2013-01-14 11:01:00,6.8,-0.6,30.35,North,355,1.0,1.0,71,0.00,,---,0.00,VWS V14.01,2013-01-14 18:01:00,
2013-01-14 11:06:00,6.7,-1.0,30.35,NNW,330,4.0,5.0,70,0.00,,---,0.00,VWS V14.01,2013-01-14 18:06:00,
2013-01-14 11:11:00,5.8,-1.9,30.41,NNW,329,2.0,2.0,70,0.00,,---,0.00,VWS V14.01,2013-01-14 18:11:00,
2013-01-14 11:16:00,5.8,-1.6,30.41,NNW,328,2.0,4.0,71,0.00,,---,0.00,VWS V14.01,2013-01-14 18:16:00,
2013-01-14 11:21:00,5.8,-1.6,30.40,NW,317,2.0,2.0,71,0.00,,---,0.00,VWS V14.01,2013-01-14 18:21:00,
2013-01-14 11:26:00,5.6,-2.0,30.40,NW,317,4.0,4.0,70,0.00,,---,0.00,VWS V14.01,2013-01-14 18:26:00,
2013-01-14 11:31:00,5.9,-1.8,30.40,NW,315,2.0,2.0,70,0.00,,---,0.00,VWS V14.01,2013-01-14 18:31:00,
2013-01-14 11:36:00,5.9,-1.5,30.39,NW,314,1.0,2.0,71,0.00,,---,0.00,VWS V14.01,2013-01-14 18:36:00,
2013-01-14 11:41:00,6.5,-0.9,30.39,NW,314,0.0,1.0,71,0.00,,---,0.00,VWS V14.01,2013-01-14 18:41:00,
2013-01-14 11:46:00,7.7,0.3,30.36,NW,315,1.0,1.0,71,0.00,,---,0.00,VWS V14.01,2013-01-14 18:46:00,
2013-01-14 11:51:00,8.5,0.4,30.36,NW,313,0.0,1.0,69,0.00,,---,0.00,VWS V14.01,2013-01-14 18:51:00,
2013-01-14 11:56:00,9.0,0.0,30.33,NW,311,1.0,2.0,66,0.00,,---,0.00,VWS V14.01,2013-01-14 18:56:00,
2013-01-14 12:01:00,9.0,-0.4,30.33,NW,309,1.0,3.0,65,0.00,,---,0.00,VWS V14.01,2013-01-14 19:01:00,
2013-01-14 12:06:00,9.2,0.2,30.35,NW,309,0.0,0.0,66,0.00,,---,0.00,VWS V14.01,2013-01-14 19:06:00,
2013-01-14 12:11:00,9.9,0.8,30.35,NW,309,1.0,1.0,66,0.00,,---,0.00,VWS V14.01,2013-01-14 19:11:00,
2013-01-14 12:16:00,10.2,0.5,30.35,NW,309,0.0,0.0,64,0.00,,---,0.00,VWS V14.01,2013-01-14 19:16:00,
2013-01-14 12:21:00,10.3,0.6,30.34,NW,309,0.0,0.0,64,0.00,,---,0.00,VWS V14.01,2013-01-14 19:21:00,
2013-01-14 12:26:00,10.8,1.0,30.32,NW,309,0.0,1.0,64,0.00,,---,0.00,VWS V14.01,2013-01-14 19:26:00,
2013-01-14 12:31:00,11.5,1.4,30.31,NW,309,0.0,1.0,63,0.00,,---,0.00,VWS V14.01,2013-01-14 19:31:00,
2013-01-14 12:36:00,11.0,0.2,30.31,NW,309,2.0,2.0,61,0.00,,---,0.00,VWS V14.01,2013-01-14 19:36:00,
2013-01-14 12:41:00,10.3,-0.5,30.33,NW,306,1.0,4.0,61,0.00,,---,0.00,VWS V14.01,2013-01-14 19:41:00,
2013-01-14 12:46:00,9.6,-0.8,30.33,NW,306,0.0,3.0,62,0.00,,---,0.00,VWS V14.01,2013-01-14 19:46:00,
2013-01-14 12:51:00,9.2,-0.8,30.33,NW,306,3.0,5.0,63,0.00,,---,0.00,VWS V14.01,2013-01-14 19:51:00,
2013-01-14 12:56:00,9.6,-0.4,30.33,NW,306,0.0,0.0,63,0.00,,---,0.00,VWS V14.01,2013-01-14 19:56:00,
2013-01-14 13:01:00,10.4,0.6,30.33,NW,306,5.0,5.0,64,0.00,,---,0.00,VWS V14.01,2013-01-14 20:01:00,
2013-01-14 13:06:00,9.7,-0.7,30.33,NW,306,0.0,2.0,62,0.00,,---,0.00,VWS V14.01,2013-01-14 20:06:00,
2013-01-14 13:11:00,9.4,-0.6,30.32,NW,306,2.0,2.0,63,0.00,,---,0.00,VWS V14.01,2013-01-14 20:11:00,
2013-01-14 13:16:00,9.3,-1.1,30.32,NW,306,1.0,1.0,62,0.00,,---,0.00,VWS V14.01,2013-01-14 20:16:00,
2013-01-14 13:21:00,9.4,-1.0,30.32,NW,306,2.0,2.0,62,0.00,,---,0.00,VWS V14.01,2013-01-14 20:21:00,
2013-01-14 13:26:00,9.5,-1.2,30.33,NW,304,0.0,2.0,61,0.00,,---,0.00,VWS V14.01,2013-01-14 20:26:00,
2013-01-14 13:31:00,9.9,-0.2,30.32,NW,304,1.0,2.0,63,0.00,,---,0.00,VWS V14.01,2013-01-14 20:31:00,
2013-01-14 13:36:00,10.8,0.3,30.30,NW,304,1.0,3.0,62,0.00,,---,0.00,VWS V14.01,2013-01-14 20:36:00,
2013-01-14 13:41:00,10.8,-0.3,30.30,NW,304,0.0,1.0,60,0.00,,---,0.00,VWS V14.01,2013-01-14 20:41:00,
2013-01-14 13:46:00,11.0,-0.2,30.31,NW,304,0.0,1.0,60,0.00,,---,0.00,VWS V14.01,2013-01-14 20:46:00,
2013-01-14 13:51:00,11.3,0.1,30.31,NW,304,0.0,0.0,60,0.00,,---,0.00,VWS V14.01,2013-01-14 20:51:00,
2013-01-14 13:56:00,11.5,0.3,30.31,NW,304,2.0,4.0,60,0.00,,---,0.00,VWS V14.01,2013-01-14 20:56:00,
2013-01-14 14:01:00,11.5,0.3,30.30,NW,304,0.0,0.0,60,0.00,,---,0.00,VWS V14.01,2013-01-14 21:01:00,
2013-01-14 14:06:00,11.7,0.5,30.28,NW,304,0.0,0.0,60,0.00,,---,0.00,VWS V14.01,2013-01-14 21:06:00,
2013-01-14 14:11:00,11.4,-0.1,30.28,NW,304,0.0,0.0,59,0.00,,---,0.00,VWS V14.01,2013-01-14 21:11:00,
2013-01-14 14:16:00,11.8,0.2,30.29,NW,304,0.0,0.0,59,0.00,,---,0.00,VWS V14.01,2013-01-14 21:16:00,
2013-01-14 14:21:00,12.7,1.1,30.29,NW,304,0.0,0.0,59,0.00,,---,0.00,VWS V14.01,2013-01-14 21:21:00,
2013-01-14 14:26:00,13.1,1.1,30.29,NW,304,0.0,1.0,58,0.00,,---,0.00,VWS V14.01,2013-01-14 21:26:00,
2013-01-14 14:31:00,13.3,0.9,30.27,NW,304,0.0,1.0,57,0.00,,---,0.00,VWS V14.01,2013-01-14 21:31:00,
2013-01-14 14:36:00,13.0,0.6,30.29,NW,304,0.0,0.0,57,0.00,,---,0.00,VWS V14.01,2013-01-14 21:36:00,
2013-01-14 14:41:00,13.2,0.8,30.29,NW,304,0.0,0.0,57,0.00,,---,0.00,VWS V14.01,2013-01-14 21:41:00,
2013-01-14 14:46:00,12.5,0.2,30.30,NW,304,0.0,0.0,57,0.00,,---,0.00,VWS V14.01,2013-01-14 21:46:00,
2013-01-14 14:51:00,12.2,0.3,30.30,NW,304,0.0,1.0,58,0.00,,---,0.00,VWS V14.01,2013-01-14 21:51:00,
2013-01-14 14:56:00,12.0,-0.3,30.30,NW,304,0.0,0.0,57,0.00,,---,0.00,VWS V14.01,2013-01-14 21:56:00,
2013-01-14 15:01:00,11.7,-0.6,30.30,NW,304,1.0,3.0,57,0.00,,---,0.00,VWS V14.01,2013-01-14 22:01:00,
2013-01-14 15:06:00,11.2,-0.7,30.30,NW,304,1.0,1.0,58,0.00,,---,0.00,VWS V14.01,2013-01-14 22:06:00,
2013-01-14 15:11:00,10.9,-0.2,30.36,NW,304,0.0,0.0,60,0.00,,---,0.00,VWS V14.01,2013-01-14 22:11:00,
2013-01-14 15:16:00,11.0,-0.2,30.37,NW,304,0.0,0.0,60,0.00,,---,0.00,VWS V14.01,2013-01-14 22:16:00,
2013-01-14 15:21:00,11.0,-0.2,30.37,NW,304,0.0,0.0,60,0.00,,---,0.00,VWS V14.01,2013-01-14 22:21:00,
2013-01-14 15:26:00,10.8,-0.3,30.37,NW,304,0.0,0.0,60,0.00,,---,0.00,VWS V14.01,2013-01-14 22:26:00,
2013-01-14 15:31:00,10.7,-0.4,30.37,NW,304,0.0,0.0,60,0.00,,---,0.00,VWS V14.01,2013-01-14 22:31:00,
2013-01-14 15:36:00,10.1,-1.0,30.37,NW,304,0.0,1.0,60,0.00,,---,0.00,VWS V14.01,2013-01-14 22:36:00,
2013-01-14 15:41:00,9.9,-0.9,30.37,NW,304,0.0,0.0,61,0.00,,---,0.00,VWS V14.01,2013-01-14 22:41:00,
2013-01-14 15:46:00,10.1,-0.3,30.38,NW,304,0.0,0.0,62,0.00,,---,0.00,VWS V14.01,2013-01-14 22:46:00,
2013-01-14 15:51:00,10.7,-0.1,30.37,NW,304,0.0,0.0,61,0.00,,---,0.00,VWS V14.01,2013-01-14 22:51:00,
2013-01-14 15:56:00,11.0,-0.2,30.38,NW,304,1.0,1.0,60,0.00,,---,0.00,VWS V14.01,2013-01-14 22:56:00,
2013-01-14 16:01:00,10.9,-0.6,30.38,NW,304,0.0,0.0,59,0.00,,---,0.00,VWS V14.01,2013-01-14 23:01:00,
2013-01-14 16:06:00,10.7,-0.8,30.34,NW,304,0.0,0.0,59,0.00,,---,0.00,VWS V14.01,2013-01-14 23:06:00,
2013-01-14 16:11:00,10.5,-0.6,30.34,NW,304,0.0,0.0,60,0.00,,---,0.00,VWS V14.01,2013-01-14 23:11:00,
2013-01-14 16:16:00,9.8,-1.6,30.36,NW,304,0.0,0.0,59,0.00,,---,0.00,VWS V14.01,2013-01-14 23:16:00,
2013-01-14 16:21:00,8.7,-2.0,30.37,NW,304,0.0,0.0,61,0.00,,---,0.00,VWS V14.01,2013-01-14 23:21:00,
2013-01-14 16:26:00,8.1,-2.2,30.39,NW,304,1.0,1.0,62,0.00,,---,0.00,VWS V14.01,2013-01-14 23:26:00,
2013-01-14 16:31:00,7.5,-2.8,30.39,NW,304,0.0,0.0,62,0.00,,---,0.00,VWS V14.01,2013-01-14 23:31:00,
2013-01-14 16:36:00,6.9,-3.0,30.39,NW,304,0.0,0.0,63,0.00,,---,0.00,VWS V14.01,2013-01-14 23:36:00,
2013-01-14 16:41:00,6.6,-3.0,30.39,NW,304,1.0,2.0,64,0.00,,---,0.00,VWS V14.01,2013-01-14 23:41:00,
2013-01-14 16:46:00,6.0,-3.2,30.41,NW,304,1.0,2.0,65,0.00,,---,0.00,VWS V14.01,2013-01-14 23:46:00,
2013-01-14 16:51:00,5.4,-3.8,30.42,NW,304,0.0,3.0,65,0.00,,---,0.00,VWS V14.01,2013-01-14 23:51:00,
2013-01-14 16:56:00,4.9,-4.0,30.42,WNW,303,1.0,2.0,66,0.00,,---,0.00,VWS V14.01,2013-01-14 23:56:00,
2013-01-14 17:01:00,4.6,-4.2,30.42,NW,304,0.0,2.0,66,0.00,,---,0.00,VWS V14.01,2013-01-15 00:01:00,
2013-01-14 17:06:00,4.0,-4.5,30.44,NW,304,0.0,3.0,67,0.00,,---,0.00,VWS V14.01,2013-01-15 00:06:00,
2013-01-14 17:11:00,3.8,-4.7,30.45,WNW,303,0.0,0.0,67,0.00,,---,0.00,VWS V14.01,2013-01-15 00:11:00,
2013-01-14 17:16:00,3.5,-4.7,30.45,NW,304,0.0,0.0,68,0.00,,---,0.00,VWS V14.01,2013-01-15 00:16:00,
2013-01-14 17:21:00,3.0,-5.2,30.48,WNW,303,1.0,2.0,68,0.00,,---,0.00,VWS V14.01,2013-01-15 00:21:00,
2013-01-14 17:26:00,2.8,-5.3,30.48,NW,304,0.0,0.0,68,0.00,,---,0.00,VWS V14.01,2013-01-15 00:26:00,
2013-01-14 17:31:00,2.7,-5.4,30.49,WNW,303,0.0,0.0,68,0.00,,---,0.00,VWS V14.01,2013-01-15 00:31:00,
2013-01-14 17:36:00,2.6,-5.2,30.48,NW,304,0.0,0.0,69,0.00,,---,0.00,VWS V14.01,2013-01-15 00:36:00,
2013-01-14 17:41:00,2.7,-4.8,30.49,NW,304,0.0,0.0,70,0.00,,---,0.00,VWS V14.01,2013-01-15 00:41:00,
2013-01-14 17:47:00,2.8,-4.8,30.49,NW,304,0.0,1.0,70,0.00,,---,0.00,VWS V14.01,2013-01-15 00:47:00,
2013-01-14 17:52:00,2.8,-5.1,30.49,NW,304,0.0,0.0,69,0.00,,---,0.00,VWS V14.01,2013-01-15 00:52:00,
2013-01-14 17:57:00,2.7,-5.1,30.49,NW,304,4.0,4.0,69,0.00,,---,0.00,VWS V14.01,2013-01-15 00:57:00,
2013-01-14 18:02:00,1.2,-7.2,30.49,NW,304,1.0,2.0,67,0.00,,---,0.00,VWS V14.01,2013-01-15 01:02:00,
2013-01-14 18:07:00,-0.3,-8.3,30.49,WNW,303,0.0,1.0,68,0.00,,---,0.00,VWS V14.01,2013-01-15 01:07:00,
2013-01-14 18:12:00,-0.7,-8.1,30.49,NW,304,0.0,0.0,70,0.00,,---,0.00,VWS V14.01,2013-01-15 01:12:00,
2013-01-14 18:17:00,-0.9,-8.0,30.50,WNW,303,0.0,1.0,71,0.00,,---,0.00,VWS V14.01,2013-01-15 01:17:00,
2013-01-14 18:22:00,0.1,-5.9,30.50,NW,304,0.0,2.0,75,0.00,,---,0.00,VWS V14.01,2013-01-15 01:22:00,
2013-01-14 18:27:00,1.7,-3.8,30.50,WNW,295,0.0,7.0,77,0.00,,---,0.00,VWS V14.01,2013-01-15 01:27:00,
2013-01-14 18:32:00,4.1,-0.9,30.46,WNW,296,0.0,0.0,79,0.00,,---,0.00,VWS V14.01,2013-01-15 01:32:00,
2013-01-14 18:37:00,5.1,0.0,30.46,WNW,295,0.0,0.0,79,0.00,,---,0.00,VWS V14.01,2013-01-15 01:37:00,
2013-01-14 18:42:00,5.3,-0.3,30.46,WNW,296,0.0,0.0,77,0.00,,---,0.00,VWS V14.01,2013-01-15 01:42:00,
2013-01-14 18:47:00,4.9,-1.3,30.46,WNW,295,0.0,0.0,75,0.00,,---,0.00,VWS V14.01,2013-01-15 01:47:00,
2013-01-14 18:52:00,4.2,-2.2,30.46,WNW,296,0.0,0.0,74,0.00,,---,0.00,VWS V14.01,2013-01-15 01:52:00,
2013-01-14 18:57:00,1.8,-5.4,30.49,WNW,296,1.0,5.0,71,0.00,,---,0.00,VWS V14.01,2013-01-15 01:57:00,
2013-01-14 19:02:00,0.5,-6.1,30.51,WNW,296,1.0,2.0,73,0.00,,---,0.00,VWS V14.01,2013-01-15 02:02:00,
2013-01-14 19:07:00,0.4,-5.6,30.51,WNW,295,0.0,2.0,75,0.00,,---,0.00,VWS V14.01,2013-01-15 02:07:00,
2013-01-14 19:12:00,0.1,-5.9,30.49,WNW,296,4.0,6.0,75,0.00,,---,0.00,VWS V14.01,2013-01-15 02:12:00,
2013-01-14 19:17:00,-0.9,-6.9,30.51,WNW,295,0.0,0.0,75,0.00,,---,0.00,VWS V14.01,2013-01-15 02:17:00,
2013-01-14 19:22:00,-0.5,-6.0,30.51,WNW,296,0.0,0.0,77,0.00,,---,0.00,VWS V14.01,2013-01-15 02:22:00,
2013-01-14 19:27:00,-0.3,-5.8,30.51,WNW,296,0.0,0.0,77,0.00,,---,0.00,VWS V14.01,2013-01-15 02:27:00,
2013-01-14 19:32:00,-0.5,-6.2,30.51,WNW,296,0.0,0.0,76,0.00,,---,0.00,VWS V14.01,2013-01-15 02:32:00,
2013-01-14 19:37:00,-0.8,-6.5,30.50,WNW,295,0.0,1.0,76,0.00,,---,0.00,VWS V14.01,2013-01-15 02:37:00,
2013-01-14 19:42:00,-0.9,-6.4,30.51,WNW,295,0.0,1.0,77,0.00,,---,0.00,VWS V14.01,2013-01-15 02:42:00,
2013-01-14 19:47:00,-0.9,-6.4,30.51,WNW,295,1.0,1.0,77,0.00,,---,0.00,VWS V14.01,2013-01-15 02:47:00,
2013-01-14 19:52:00,-1.4,-7.1,30.51,WNW,296,1.0,1.0,76,0.00,,---,0.00,VWS V14.01,2013-01-15 02:52:00,
2013-01-14 19:58:00,-1.7,-7.4,30.51,WNW,296,0.0,0.0,76,0.00,,---,0.00,VWS V14.01,2013-01-15 02:58:00,
2013-01-14 20:03:00,-1.5,-6.9,30.51,WNW,296,0.0,0.0,77,0.00,,---,0.00,VWS V14.01,2013-01-15 03:03:00,
2013-01-14 20:08:00,-1.3,-6.8,30.49,WNW,295,0.0,0.0,77,0.00,,---,0.00,VWS V14.01,2013-01-15 03:08:00,
2013-01-14 20:13:00,-1.4,-6.8,30.49,WNW,296,0.0,0.0,77,0.00,,---,0.00,VWS V14.01,2013-01-15 03:13:00,
2013-01-14 20:18:00,-1.7,-7.4,30.49,WNW,296,0.0,1.0,76,0.00,,---,0.00,VWS V14.01,2013-01-15 03:18:00,
2013-01-14 20:23:00,-2.3,-8.0,30.49,WNW,296,0.0,0.0,76,0.00,,---,0.00,VWS V14.01,2013-01-15 03:23:00,
2013-01-14 20:28:00,-3.1,-9.0,30.52,WNW,296,0.0,0.0,75,0.00,,---,0.00,VWS V14.01,2013-01-15 03:28:00,
2013-01-14 20:33:00,-3.8,-9.7,30.51,WNW,295,0.0,0.0,75,0.00,,---,0.00,VWS V14.01,2013-01-15 03:33:00,
2013-01-14 20:38:00,-4.2,-10.1,30.51,WNW,296,0.0,0.0,75,0.00,,---,0.00,VWS V14.01,2013-01-15 03:38:00,
2013-01-14 20:43:00,-4.4,-10.3,30.51,WNW,296,0.0,0.0,75,0.00,,---,0.00,VWS V14.01,2013-01-15 03:43:00,
2013-01-14 20:48:00,-4.5,-10.1,30.51,WNW,296,0.0,0.0,76,0.00,,---,0.00,VWS V14.01,2013-01-15 03:48:00,
2013-01-14 20:53:00,-4.5,-10.1,30.51,WNW,295,0.0,0.0,76,0.00,,---,0.00,VWS V14.01,2013-01-15 03:53:00,
2013-01-14 20:58:00,-4.6,-10.2,30.51,WNW,296,0.0,0.0,76,0.00,,---,0.00,VWS V14.01,2013-01-15 03:58:00,
2013-01-14 21:03:00,-4.7,-10.3,30.51,WNW,296,0.0,0.0,76,0.00,,---,0.00,VWS V14.01,2013-01-15 04:03:00,
2013-01-14 21:08:00,-4.6,-10.2,30.51,WNW,295,0.0,0.0,76,0.00,,---,0.00,VWS V14.01,2013-01-15 04:08:00,
2013-01-14 21:13:00,-4.6,-10.0,30.51,WNW,296,0.0,1.0,77,0.00,,---,0.00,VWS V14.01,2013-01-15 04:13:00,
2013-01-14 21:18:00,-4.8,-10.4,30.51,WNW,296,0.0,3.0,76,0.00,,---,0.00,VWS V14.01,2013-01-15 04:18:00,
2013-01-14 21:23:00,-5.1,-10.7,30.51,WNW,296,0.0,0.0,76,0.00,,---,0.00,VWS V14.01,2013-01-15 04:23:00,
2013-01-14 21:28:00,-6.0,-11.9,30.51,WNW,296,0.0,0.0,75,0.00,,---,0.00,VWS V14.01,2013-01-15 04:28:00,
2013-01-14 21:33:00,-6.7,-12.5,30.54,WNW,296,0.0,0.0,75,0.00,,---,0.00,VWS V14.01,2013-01-15 04:33:00,
2013-01-14 21:38:00,-6.9,-12.7,30.53,WNW,296,0.0,0.0,75,0.00,,---,0.00,VWS V14.01,2013-01-15 04:38:00,
2013-01-14 21:43:00,-7.1,-12.9,30.53,WNW,296,0.0,0.0,75,0.00,,---,0.00,VWS V14.01,2013-01-15 04:43:00,
2013-01-14 21:48:00,-7.3,-13.1,30.53,WNW,296,0.0,0.0,75,0.00,,---,0.00,VWS V14.01,2013-01-15 04:48:00,
2013-01-14 21:53:00,-7.2,-12.8,30.53,WNW,296,0.0,0.0,76,0.00,,---,0.00,VWS V14.01,2013-01-15 04:53:00,
2013-01-14 21:58:00,-7.1,-12.6,30.53,WNW,296,0.0,0.0,76,0.00,,---,0.00,VWS V14.01,2013-01-15 04:58:00,
2013-01-14 22:00:00,-7.0,-12.6,30.53,WNW,296,0.0,1.0,76,0.00,,---,0.00,VWS V14.01,2013-01-15 05:00:00,
2013-01-14 22:05:00,-6.5,-11.8,30.54,WNW,295,0.0,4.0,77,0.00,,---,0.00,VWS V14.01,2013-01-15 05:05:00,
2013-01-14 22:10:00,-6.7,-12.3,30.51,WNW,296,0.0,0.0,76,0.00,,---,0.00,VWS V14.01,2013-01-15 05:10:00,
2013-01-14 22:15:00,-6.8,-12.4,30.51,WNW,296,0.0,1.0,76,0.00,,---,0.00,VWS V14.01,2013-01-15 05:15:00,
2013-01-14 22:20:00,-7.1,-12.6,30.51,WNW,296,0.0,0.0,76,0.00,,---,0.00,VWS V14.01,2013-01-15 05:20:00,
2013-01-14 22:25:00,-7.4,-13.2,30.51,WNW,295,0.0,0.0,75,0.00,,---,0.00,VWS V14.01,2013-01-15 05:25:00,
2013-01-14 22:30:00,-7.6,-13.1,30.52,WNW,296,0.0,0.0,76,0.00,,---,0.00,VWS V14.01,2013-01-15 05:30:00,
2013-01-14 22:35:00,-7.5,-13.0,30.51,WNW,296,0.0,1.0,76,0.00,,---,0.00,VWS V14.01,2013-01-15 05:35:00,
2013-01-14 22:40:00,-7.0,-12.3,30.51,WNW,296,0.0,1.0,77,0.00,,---,0.00,VWS V14.01,2013-01-15 05:40:00,